Mount Laurel, NJ

4:43 PM EST on January 24, 2017 (GMT -0500)
South Jersey Regional

Weather History for KVAY - May, 2013

Change the Weather History Date:

Tuesday, May 21, 2013

  Actual Average (KPNE) Record (KPNE)
Temperature  
Mean Temperature 73 °F -  
Max Temperature 82 °F 70 °F 82 °F (1998)
Min Temperature 64 °F 51 °F 39 °F (2002)
Cooling Degree Days 8    
Growing Degree Days 23 (Base 50)    
Moisture  
Dew Point 65 °F    
Average Humidity 80    
Maximum Humidity 97    
Minimum Humidity 58    
Precipitation  
Precipitation 0.00 in - - ()
Sea Level Pressure  
Sea Level Pressure 29.95 in    
Wind  
Wind Speed 3 mph (SW)    
Max Wind Speed 12 mph    
Max Gust Speed -    
Visibility 7 miles    
Events      
Averages and records for this station are not official NWS values.
T = Trace of Precipitation, MM = Missing Value Source: NWS Daily Summary

Daily Weather History Graph

Daily Weather History Graph

Search for Another Location

Airport or City:

Trip Planner

Search our weather history database for the weather conditions in past years. The results will help you decide how hot, cold, wet, or windy it might be!

Date:

Astronomy

May. 21, 2013 Rise Set
Actual Time 5:39 AM EDT 8:13 PM EDT
Civil Twilight 5:07 AM EDT 8:44 PM EDT
Nautical Twilight 4:29 AM EDT 9:23 PM EDT
Astronomical Twilight 3:45 AM EDT 10:07 PM EDT
Moon 4:24 PM EDT (5/21) 3:05 AM EDT (5/21)
Length of Visible Light 15h 36m
Length of Day
14h 34m
Waxing Gibbous, 84% of the Moon is Illuminated
May 21
Waxing Gibbous
May 25
Full
May 31
Last Quarter
Jun 8
New
Jun 16
First Quarter

Hourly Weather History & Observations

Time (EDT) Temp. Heat Index Dew Point Humidity Pressure Visibility Wind Dir Wind Speed Gust Speed Precip Events Conditions
12:54 AM 66.0 °F - 64.0 °F 93% 29.97 in 6.0 mi Calm Calm - N/A   Clear
1:54 AM 64.9 °F - 64.0 °F 97% 29.97 in 5.0 mi Calm Calm - N/A   Clear
2:28 AM 64.4 °F - 62.6 °F 94% 29.97 in 2.5 mi Calm Calm - N/A   Clear
2:32 AM 64.4 °F - 62.6 °F 94% 29.97 in 1.2 mi Calm Calm - N/A   Partly Cloudy
2:49 AM 64.4 °F - 62.6 °F 94% 29.97 in 3.0 mi South 3.5 mph - N/A   Clear
2:54 AM 64.0 °F - 63.0 °F 96% 29.96 in 3.0 mi Calm Calm - N/A   Clear
3:54 AM 64.0 °F - 63.0 °F 96% 29.96 in 2.0 mi Calm Calm - N/A   Clear
4:05 AM 64.4 °F - 62.6 °F 94% 29.96 in 4.0 mi Calm Calm - N/A   Clear
4:54 AM 64.0 °F - 63.0 °F 96% 29.96 in 4.0 mi Calm Calm - N/A   Clear
5:02 AM 64.4 °F - 62.6 °F 94% 29.96 in 4.0 mi Calm Calm - N/A   Scattered Clouds
5:13 AM 64.4 °F - 62.6 °F 94% 29.96 in 4.0 mi Calm Calm - N/A   Mostly Cloudy
5:39 AM 66.2 °F - 64.4 °F 94% 29.97 in 5.0 mi WSW 3.5 mph - N/A   Overcast
5:54 AM 66.9 °F - 64.9 °F 93% 29.97 in 3.0 mi SW 3.5 mph - N/A   Overcast
6:54 AM 66.9 °F - 66.0 °F 97% 29.99 in 3.0 mi WSW 6.9 mph - N/A   Overcast
7:02 AM 68.0 °F - 66.2 °F 94% 29.99 in 2.5 mi Variable 4.6 mph - N/A   Overcast
7:49 AM 68.0 °F - 66.2 °F 94% 29.99 in 3.0 mi SW 4.6 mph - N/A   Overcast
7:54 AM 69.1 °F - 66.0 °F 90% 29.99 in 3.0 mi SW 5.8 mph - N/A   Overcast
8:14 AM 69.8 °F - 66.2 °F 88% 30.00 in 5.0 mi WSW 5.8 mph - N/A   Overcast
8:54 AM 71.1 °F - 66.0 °F 84% 30.00 in 8.0 mi WSW 6.9 mph - N/A   Overcast
9:09 AM 71.6 °F - 66.2 °F 83% 29.99 in 8.0 mi Variable 3.5 mph - N/A   Overcast
9:54 AM 73.9 °F - 66.0 °F 76% 29.99 in 10.0 mi SW 6.9 mph - N/A   Mostly Cloudy
10:49 AM 73.4 °F - 66.2 °F 78% 29.96 in 10.0 mi SSW 5.8 mph - N/A   Scattered Clouds
10:54 AM 73.9 °F - 66.0 °F 76% 29.96 in 10.0 mi Variable 4.6 mph - N/A   Partly Cloudy
11:20 AM 77.0 °F - 66.2 °F 69% 29.97 in 10.0 mi SSW 4.6 mph - N/A   Mostly Cloudy
11:54 AM 77.0 °F - 66.0 °F 69% 29.96 in 10.0 mi Variable 6.9 mph - N/A   Mostly Cloudy
12:54 PM 79.0 °F - 66.9 °F 66% 29.95 in 10.0 mi SW 6.9 mph - N/A   Partly Cloudy
1:21 PM 78.8 °F - 66.2 °F 65% 29.95 in 10.0 mi Variable 6.9 mph - N/A   Mostly Cloudy
1:54 PM 81.0 °F 83.8 °F 68.0 °F 65% 29.94 in 10.0 mi SW 8.1 mph - N/A   Mostly Cloudy
2:06 PM 80.6 °F 82.7 °F 66.2 °F 61% 29.94 in 10.0 mi SW 6.9 mph - N/A   Scattered Clouds
2:23 PM 80.6 °F 82.7 °F 66.2 °F 61% 29.93 in 10.0 mi Variable 4.6 mph - N/A   Mostly Cloudy
2:41 PM 80.6 °F 82.7 °F 66.2 °F 61% 29.93 in 10.0 mi SSW 6.9 mph - N/A   Scattered Clouds
2:54 PM 81.0 °F 83.3 °F 66.9 °F 62% 29.93 in 10.0 mi WSW 11.5 mph - N/A   Partly Cloudy
3:54 PM 82.0 °F 84.5 °F 66.9 °F 60% 29.91 in 10.0 mi WSW 10.4 mph - N/A   Clear
4:54 PM 82.0 °F 84.1 °F 66.0 °F 58% 29.90 in 10.0 mi SW 6.9 mph - N/A   Clear
5:54 PM 82.0 °F 84.5 °F 66.9 °F 60% 29.88 in 10.0 mi SSW 6.9 mph - N/A   Clear
6:54 PM 81.0 °F 83.3 °F 66.9 °F 62% 29.87 in 10.0 mi Calm Calm - N/A   Clear
7:54 PM 79.0 °F - 66.0 °F 64% 29.88 in 10.0 mi SW 6.9 mph - N/A   Clear
8:54 PM 75.0 °F - 66.0 °F 73% 29.88 in 10.0 mi Calm Calm - N/A   Clear
9:54 PM 73.0 °F - 66.0 °F 79% 29.88 in 10.0 mi Calm Calm - N/A   Clear
10:54 PM 73.0 °F - 66.0 °F 79% 29.88 in 10.0 mi South 3.5 mph - N/A   Clear
11:54 PM 70.0 °F - 66.0 °F 87% 29.88 in 10.0 mi South 3.5 mph - N/A   Clear